Lapse_Rate
6.5 6.5 6.5 6.5 6.5 6.5 6.5 6.5 6.5 6.5 6.5 6.5 6.5 6.5 6.6 7.2 7.3 7.3 7.5 7.7 7.8 8.0 8.0 8.1 8.3 8.4 8.6 9.1 9.3 9.4 9.2 9.6 9.2 8.6 8.6 8.3 7.4 6.2 5.0 5.3 5.2 5.1 5.6 6.7
6.5 6.5 6.5 6.5 6.5 6.5 6.5 6.5 6.5 6.5 6.5 6.5 6.6 7.0 6.8 7.0 7.1 7.2 7.4 7.6 7.8 8.0 8.2 8.2 8.4 8.5 8.6 8.7 9.2 8.9 8.6 9.0 8.7 8.5 8.5 8.6 8.3 6.8 5.4 4.7 4.7 4.4 4.8 5.3
6.5 6.5 6.5 6.5 6.5 6.5 6.5 6.5 6.5 6.5 6.5 6.5 6.5 6.5 6.7 7.0 7.3 7.3 7.5 7.8 7.9 8.1 8.3 8.4 8.6 8.6 8.7 8.7 9.0 8.5 7.9 8.3 8.3 8.1 8.2 8.2 8.5 8.2 6.1 4.5 5.3 4.1 4.5 5.3
6.5 6.5 6.5 6.5 6.5 6.5 6.5 6.5 6.5 6.5 6.5 6.5 6.6 7.0 7.4 7.7 7.5 7.5 7.8 7.9 8.0 8.5 8.4 8.5 9.0 9.0 8.8 8.9 8.1 8.1 8.0 8.0 8.1 8.0 8.2 8.3 8.2 8.2 8.0 7.8 6.9 6.5 5.9 5.6
6.5 6.5 6.5 6.5 6.5 6.5 6.5 6.5 6.5 6.5 6.5 6.5 7.2 7.3 7.1 7.9 8.1 7.9 8.1 8.3 8.4 8.7 8.7 8.5 8.6 8.7 8.6 8.6 8.5 7.9 8.1 7.8 8.0 8.5 8.4 8.4 6.6 6.5 7.7 8.3 8.0 7.3 7.5 7.0
6.5 6.5 6.5 6.5 6.5 6.8 6.5 6.5 6.5 6.4 6.5 6.5 6.9 6.5 6.5 7.8 8.1 8.2 8.4 8.5 8.4 8.6 8.7 8.7 8.6 9.0 8.7 8.6 8.5 7.8 6.1 7.9 8.1 8.6 8.5 8.3 7.1 6.7 7.7 8.1 7.2 8.6 8.3 7.4
6.5 6.5 6.5 6.5 6.5 7.0 6.5 6.5 6.7 7.0 6.9 6.9 6.5 6.8 7.7 8.2 8.2 8.4 8.5 8.4 8.5 8.5 8.3 8.4 8.6 8.8 8.2 8.4 8.5 7.9 8.6 9.0 8.5 8.4 8.2 8.2 7.6 6.7 6.5 7.6 8.6 8.0 8.1 7.6
6.5 6.5 6.5 6.7 6.7 6.5 6.6 7.2 7.4 7.4 7.3 7.2 7.5 7.8 8.0 8.2 8.1 8.3 8.3 8.4 8.6 8.3 8.4 8.6 8.7 8.6 8.2 7.5 6.4 8.0 8.3 8.1 8.3 8.4 8.9 9.5 8.1 7.9 8.3 8.2 8.0 7.9 7.7 7.9
6.5 6.5 6.6 7.2 6.9 7.6 7.6 7.2 7.5 7.6 7.9 7.9 7.8 7.8 8.0 8.0 8.2 8.3 8.4 8.4 8.7 8.6 8.3 8.6 8.7 8.5 8.0 7.4 8.3 8.4 7.9 7.8 8.4 8.7 8.8 8.3 8.0 8.3 8.6 8.3 9.0 8.6 9.7 9.0
6.5 6.5 6.5 7.3 7.7 7.9 7.9 7.8 8.1 8.2 8.2 8.3 8.0 8.1 8.1 8.3 8.3 8.3 8.4 8.4 8.6 8.5 8.3 8.3 8.6 8.7 8.6 8.7 8.6 8.3 8.1 8.1 8.5 8.8 8.6 8.7 9.0 9.1 9.0 9.0 9.1 9.2 9.3 9.7
6.5 6.5 6.9 7.3 7.7 7.9 8.0 8.2 8.3 8.4 8.4 8.3 8.2 8.1 8.2 8.2 8.1 8.3 8.4 8.5 8.6 8.4 8.4 8.4 8.6 8.6 8.8 8.9 8.8 8.6 8.6 8.6 8.7 8.9 8.3 8.8 8.8 9.0 9.1 8.8 8.4 9.3 9.2 9.4
6.5 6.9 6.9 6.9 7.9 8.1 7.9 8.0 8.2 8.2 8.1 8.4 8.3 8.1 8.2 8.3 8.4 8.3 8.3 8.5 8.4 8.5 8.5 8.6 8.7 8.7 8.7 7.8 8.5 8.8 8.6 8.8 8.9 9.0 9.0 8.9 8.9 8.8 -0.6 -0.3 -0.6 -3.9 -6.8 -2.9
6.8 7.8 7.8 7.9 8.2 8.4 8.2 8.3 8.5 8.4 8.4 8.2 8.4 8.5 8.2 8.1 8.3 7.3 7.8 8.3 8.4 8.4 8.6 8.6 8.6 8.5 6.4 8.0 8.9 8.1 8.3 6.6 8.8 7.5 8.9 8.7 8.7 8.7 8.6 2.3 -5.6 -4.8 -7.4 -7.0
8.7 7.9 7.4 7.8 7.7 8.3 8.4 8.4 8.1 8.8 8.8 8.6 8.6 8.6 8.2 6.6 6.9 8.2 8.1 8.4 8.7 8.7 8.6 8.7 8.7 8.7 9.0 9.0 8.8 7.4 6.0 -0.2 8.7 8.9 8.9 8.8 8.7 8.7 8.7 8.6 8.4 7.4 -3.6 -4.7
7.5 8.3 8.3 8.5 8.0 8.1 8.5 8.5 8.4 8.5 8.6 8.5 8.6 8.1 6.3 6.8 7.0 7.3 8.1 7.6 7.4 7.6 8.0 8.6 8.6 8.2 8.8 9.1 8.0 8.6 9.0 9.1 9.1 9.1 8.1 7.0 6.8 5.8 5.9 5.3 4.2 3.3 3.4 1.3
7.6 7.9 7.9 7.9 8.0 8.2 8.1 7.9 8.1 8.2 8.4 8.3 8.1 6.9 6.3 6.3 7.9 8.3 8.4 8.7 8.5 8.5 8.4 7.8 7.4 8.7 9.1 9.0 8.9 8.4 7.6 4.3 4.9 9.1 9.1 9.0 9.0 8.9 8.8 8.7 8.6 8.5 8.3 6.9
7.4 7.2 7.5 7.6 8.0 8.1 8.1 8.1 7.7 8.2 8.2 8.0 7.8 6.0 5.3 6.9 7.7 8.2 8.5 8.8 8.8 8.7 8.9 8.8 8.8 8.9 9.0 9.1 9.0 9.2 9.2 9.1 3.4 9.1 9.0 9.1 9.0 8.9 8.9 8.9 8.6 8.8 8.7 4.1
6.5 7.1 8.1 7.7 7.7 7.6 7.3 7.5 7.2 8.0 7.5 5.6 5.7 5.4 6.9 6.9 7.0 7.7 8.2 8.8 8.7 8.8 8.9 8.9 9.0 9.2 9.2 8.9 9.1 9.3 9.3 9.2 9.2 9.1 9.2 9.0 9.1 9.1 9.1 8.9 8.2 8.7 9.1 6.6
6.5 6.4 6.4 6.4 6.5 6.6 6.4 6.5 6.5 5.7 5.7 5.3 5.5 6.3 6.6 7.0 7.3 7.7 8.2 8.3 8.5 8.4 8.8 9.2 6.5 8.7 9.0 6.4 6.6 8.9 9.4 9.3 9.2 9.1 9.1 8.0 9.0 9.1 8.4 7.7 8.3 7.0 7.3 8.4
6.4 6.7 6.8 6.8 5.8 5.6 6.3 6.2 5.6 5.9 6.5 5.1 5.3 4.9 5.0 6.0 6.7 7.8 8.2 8.1 8.5 9.0 7.8 7.1 9.2 9.1 8.9 8.4 6.6 9.4 7.9 7.7 8.7 9.1 9.0 9.1 9.1 9.0 7.4 4.2 5.5 5.9 6.9 6.2
7.6 7.2 7.4 7.2 5.9 5.4 5.0 5.5 5.0 5.6 5.7 5.1 6.2 6.3 6.0 5.5 4.9 5.6 6.3 6.2 7.0 8.6 8.2 5.1 4.8 9.0 9.1 8.5 9.0 9.5 9.3 9.3 8.7 7.9 9.0 8.0 8.1 8.1 7.7 6.6 4.8 4.3 4.3 4.1
8.6 8.5 8.1 7.1 7.0 7.3 7.6 7.5 6.6 6.4 6.6 6.3 6.5 6.4 6.6 6.7 6.4 6.3 6.6 6.7 7.7 6.5 9.2 9.2 7.5 4.4 7.4 8.3 9.4 9.5 9.6 9.5 9.4 9.3 9.3 9.1 7.1 5.7 4.7 3.4 3.2 3.2 3.0 3.0
8.7 8.5 8.6 8.6 8.5 8.5 8.8 9.0 8.8 8.3 7.9 7.6 8.1 8.5 8.8 9.0 9.1 8.8 8.8 8.8 7.8 6.2 8.8 9.4 5.6 4.9 5.1 9.0 9.2 9.1 8.8 9.3 9.5 9.5 8.3 6.7 7.2 6.8 6.0 3.9 3.5 3.4 2.7 2.7
8.7 8.7 8.7 8.7 8.7 8.6 8.3 8.4 8.8 8.9 8.8 8.6 8.8 8.8 8.9 8.8 9.2 9.4 9.5 7.8 6.6 8.2 8.1 7.3 6.7 5.1 8.2 8.5 6.1 5.8 5.4 5.8 7.2 7.2 9.4 7.7 9.5 9.7 9.5 6.9 4.8 3.7 3.2 2.7
8.8 8.8 8.9 8.8 8.6 8.6 8.6 8.8 8.8 8.8 8.9 8.8 9.0 9.2 9.3 9.5 9.4 9.3 9.3 9.3 7.2 8.9 9.5 6.8 6.5 7.3 9.8 9.9 9.8 9.4 7.5 8.0 7.7 8.5 9.4 9.4 9.4 9.6 9.8 9.7 9.6 8.2 6.3 4.5
8.8 9.1 9.2 8.9 9.2 9.3 9.4 9.3 9.2 9.3 9.3 9.1 9.4 9.6 9.7 9.6 9.6 9.4 9.4 8.9 9.4 8.9 9.6 9.6 9.7 9.8 10.0 9.9 9.8 9.6 9.7 9.6 7.7 6.0 6.3 7.3 9.2 9.5 9.5 9.5 9.5 9.5 9.6 9.4
9.1 7.7 9.3 9.3 9.5 9.5 9.5 9.3 9.3 9.3 9.3 9.4 9.3 9.7 9.8 9.9 9.7 9.4 8.6 9.7 9.8 9.8 9.8 9.9 10.0 9.5 9.9 9.9 9.9 9.9 9.9 9.9 7.1 9.8 9.9 9.9 9.8 9.1 7.7 6.4 6.3 6.5 7.4 6.9
Wind_Speed
26 17 8 28 31 31 30 24 24 15 19 16 13 11 12 13 9 8 8 7 8 11 12 11 13 15 18 20 19 22 21 23 23 21 20 19 20 20 20 20 19 19 19 19
24 23 6 13 20 33 30 28 25 23 16 18 16 11 7 5 5 5 7 8 7 8 12 15 15 14 15 18 18 18 19 22 20 20 19 19 18 19 19 20 20 20 20 21
15 20 11 17 20 19 23 27 24 22 20 14 5 3 5 6 8 10 10 11 10 11 11 14 16 14 16 15 17 18 18 17 19 19 20 19 18 18 20 21 19 21 20 20
10 17 23 13 16 16 15 15 13 11 9 7 7 8 12 12 12 12 12 11 11 11 12 12 13 15 16 16 16 17 17 19 19 20 19 18 19 20 19 17 19 18 19 19
10 13 5 16 15 20 22 21 17 16 15 13 13 14 16 16 17 17 16 15 14 13 14 10 9 10 11 15 15 17 18 20 20 19 19 19 21 21 18 18 17 19 18 20
9 14 18 7 13 3 3 11 15 23 18 13 10 10 10 10 13 13 15 14 12 13 12 12 12 14 14 15 15 17 20 18 18 17 19 20 19 18 16 18 18 15 18 20
14 10 11 6 5 6 13 5 0 4 3 6 8 8 15 16 16 16 15 15 15 10 10 11 12 12 12 14 15 18 15 16 17 18 18 18 17 16 17 17 16 17 18 18
15 18 21 12 6 6 8 8 13 14 13 11 9 12 15 17 18 17 17 16 15 13 10 9 11 10 11 12 13 11 13 14 15 16 15 15 17 14 15 15 16 16 17 16
15 12 8 9 11 14 4 5 9 10 12 13 16 13 15 16 17 17 15 13 12 13 11 8 7 8 10 9 8 9 12 12 13 14 14 13 14 14 13 15 15 15 15 15
18 18 18 17 17 14 13 11 15 14 14 16 17 18 17 17 16 13 11 10 7 8 8 5 4 7 9 9 9 9 10 10 10 11 12 13 12 13 14 14 14 15 14 14
21 23 21 19 21 20 21 22 20 19 19 20 19 18 17 16 16 9 8 7 6 4 1 3 4 5 4 1 5 8 9 10 10 10 11 11 11 12 13 13 13 13 14 14
17 18 18 20 19 21 21 23 24 22 20 19 19 18 12 14 13 12 6 4 2 1 4 5 5 4 4 3 5 7 8 8 8 8 9 9 9 10 6 5 2 2 3 2
22 25 26 22 21 21 20 20 20 20 21 20 20 16 9 11 10 8 6 5 3 3 5 5 6 4 3 1 2 1 3 4 3 2 4 4 8 8 9 8 5 5 11 10
30 26 26 22 18 18 22 17 15 22 23 23 22 13 9 5 5 7 5 3 5 6 8 7 6 8 6 6 7 6 5 2 1 3 3 3 5 6 6 7 8 2 11 10
29 29 27 22 17 18 17 17 21 22 21 20 16 10 4 8 8 8 6 6 10 10 9 9 11 8 8 9 9 7 4 5 4 5 5 4 4 4 4 4 4 4 5 4
1 19 20 20 21 20 18 19 21 22 21 15 11 9 10 10 9 7 9 10 10 9 10 10 9 8 7 5 1 10 9 2 3 5 4 4 3 2 3 2 1 3 5 5
11 10 12 14 17 19 21 18 16 22 14 12 16 10 10 11 12 11 13 13 13 13 12 11 11 8 8 5 7 5 4 6 1 6 6 5 4 4 4 4 5 5 5 5
20 11 8 7 10 13 11 8 2 10 10 2 8 9 10 16 11 9 12 11 15 14 14 12 11 10 9 8 6 7 6 4 4 5 6 6 6 6 7 8 7 6 6 2
22 21 17 20 16 17 13 18 21 20 16 19 17 17 19 16 14 13 13 13 16 16 14 13 12 13 13 15 8 8 8 8 7 6 5 4 7 9 8 6 5 5 5 5
21 23 24 26 27 24 19 19 22 19 19 23 18 20 16 15 12 13 13 18 17 13 15 18 15 15 14 16 15 9 10 10 10 9 8 9 8 9 8 7 6 7 7 7
23 20 21 23 20 16 16 17 21 20 18 22 16 13 17 18 20 16 14 12 16 13 16 18 15 12 12 12 11 11 11 12 10 9 10 11 11 11 11 10 7 7 7 8
19 18 18 16 15 14 14 15 15 14 13 14 13 13 13 12 14 14 14 13 10 18 16 15 14 22 14 17 13 13 12 11 10 9 9 10 9 9 10 10 9 9 9 9
16 15 16 17 17 15 16 16 17 16 16 17 14 13 12 10 11 14 12 13 12 16 13 15 15 18 22 15 13 14 15 14 11 10 7 8 9 10 11 10 9 10 9 8
15 15 15 12 13 14 14 13 14 14 13 15 15 15 13 11 11 10 11 15 17 13 16 16 17 17 12 12 10 10 11 11 12 12 12 12 10 11 10 10 9 9 10 10
15 12 14 14 13 10 11 13 13 13 12 12 14 13 15 12 12 10 11 10 14 15 12 15 17 13 12 11 11 11 9 10 11 10 12 13 13 11 10 10 10 10 10 9
12 10 8 11 10 10 9 9 10 10 9 10 11 11 11 10 10 10 10 10 12 11 10 10 11 12 10 11 11 11 10 10 6 8 9 9 11 11 12 13 12 12 12 10
8 11 9 9 9 9 9 9 9 10 11 10 10 10 10 10 10 10 10 10 10 10 9 9 10 9 8 9 9 9 8 9 10 11 10 9 9 9 10 10 9 10 11 12
Wind_Direction
252 253 229 202 213 216 215 219 222 208 208 166 140 137 134 142 131 127 146 171 198 232 234 223 196 195 196 208 207 207 204 206 210 210 213 211 207 206 205 207 209 209 210 211
252 249 217 258 240 214 214 220 222 234 232 197 159 179 190 207 200 234 277 278 263 224 224 225 208 201 200 202 211 206 209 210 204 207 206 211 210 207 207 208 207 209 211 211
233 238 226 238 234 238 225 210 223 220 231 252 222 220 244 247 237 238 258 264 240 248 225 210 210 212 207 203 204 213 210 208 208 205 206 206 209 209 211 210 207 212 213 212
245 226 227 232 203 235 239 251 245 255 266 266 272 269 263 261 272 274 269 269 258 253 218 219 218 198 201 198 199 210 213 211 209 209 205 200 205 212 213 211 213 213 215 216
245 233 199 214 233 208 214 228 230 232 234 241 251 251 252 264 269 271 270 274 265 249 238 249 259 214 211 194 196 203 214 212 214 207 207 202 206 209 210 210 213 214 215 216
256 245 226 214 92 75 50 231 225 221 230 233 240 234 239 337 337 300 263 267 275 254 260 254 228 237 230 221 208 204 212 212 207 208 207 210 210 207 207 211 216 214 220 219
236 252 244 284 49 244 192 77 71 261 169 248 263 332 334 327 322 318 306 301 307 306 295 273 276 245 228 228 219 216 206 210 203 207 206 210 210 207 208 211 216 215 222 221
229 238 238 281 345 234 48 33 8 1 5 355 337 325 309 316 314 311 300 291 279 285 271 265 259 234 234 216 223 197 203 202 204 205 206 206 212 211 210 211 214 224 219 229
227 229 241 289 311 287 45 338 319 327 331 326 314 307 316 315 309 299 295 287 273 272 293 269 250 250 236 247 216 214 195 195 202 199 204 219 199 207 211 213 223 219 227 225
270 267 270 283 289 283 294 302 299 301 305 300 297 307 316 315 305 310 306 292 300 281 270 255 269 249 239 229 210 210 191 202 199 203 202 206 222 205 219 221 219 231 231 234
267 258 265 269 272 274 280 281 285 292 290 297 293 297 314 314 315 312 319 330 314 309 89 98 39 30 28 38 193 196 195 201 202 209 199 207 220 228 216 228 236 233 230 248
258 250 248 254 262 261 255 264 275 279 284 294 292 290 310 301 307 316 302 294 275 106 111 106 109 93 53 24 325 208 192 195 197 209 193 202 221 218 203 210 221 241 55 58
277 280 277 266 264 267 257 257 262 281 288 286 286 283 304 288 282 294 319 266 207 143 127 106 80 73 80 53 83 47 10 33 92 258 262 240 206 220 244 218 206 98 38 42
259 263 266 263 264 259 268 266 276 266 267 270 278 293 295 278 266 244 241 198 162 124 90 92 100 91 91 80 87 92 90 316 113 32 8 347 342 328 320 296 302 357 50 34
232 229 244 249 254 272 261 273 261 261 257 254 254 269 241 236 222 210 186 78 69 63 63 83 85 64 72 82 74 52 52 61 75 83 50 69 69 48 20 3 357 332 325 337
329 197 213 227 236 246 245 258 258 270 247 253 258 218 212 222 195 132 119 116 102 93 85 72 54 69 83 60 59 126 104 50 293 84 88 52 63 95 124 79 338 342 328 333
106 157 187 207 223 234 235 246 256 261 254 259 248 213 224 193 115 112 102 92 90 82 68 58 67 62 57 37 54 57 60 102 359 80 49 40 21 32 30 18 10 11 36 28
43 54 177 219 214 225 240 272 42 246 257 76 113 100 115 87 88 76 78 91 80 68 63 58 37 59 59 20 48 63 70 71 66 56 64 48 44 35 21 30 21 357 331 51
33 46 51 73 74 73 56 69 65 58 53 67 42 66 70 63 64 55 49 53 60 53 37 48 31 46 40 19 21 63 75 76 62 49 54 54 52 48 40 29 30 34 358 343
31 36 41 49 45 37 43 54 68 54 53 63 58 53 51 51 57 57 57 57 53 48 38 21 54 46 29 31 22 64 66 37 46 61 49 58 48 82 76 52 52 44 30 28
35 43 34 48 51 42 39 41 54 48 46 52 56 69 63 62 56 38 38 46 19 35 45 41 32 37 37 28 50 50 38 63 63 45 44 55 43 40 35 48 39 33 26 9
30 34 42 54 52 48 53 66 66 64 66 74 64 65 59 65 77 71 59 48 23 17 44 47 42 34 29 38 35 44 58 57 48 54 57 69 68 56 42 38 32 23 24 26
27 25 40 36 52 57 54 57 62 59 56 50 62 72 64 62 64 62 54 32 48 29 37 35 22 59 43 49 46 44 33 31 37 65 85 93 82 73 60 50 43 38 28 27
19 34 23 36 54 48 60 67 63 57 65 68 59 53 45 55 51 44 62 36 24 55 43 17 8 6 59 67 50 49 44 39 25 13 39 49 56 62 71 69 66 60 49 35
6 17 36 21 25 53 52 49 61 59 55 49 53 52 50 47 47 48 34 42 33 28 45 20 4 29 35 37 61 64 53 52 47 47 39 26 31 50 55 66 76 87 77 67
21 360 30 42 39 29 34 44 51 40 45 52 47 41 40 44 28 34 33 28 38 28 31 40 31 18 32 33 38 34 45 36 74 89 70 46 44 34 29 27 34 39 35 58
36 23 17 29 32 47 37 43 50 48 28 19 40 34 30 27 33 29 32 30 36 32 28 25 42 28 14 21 33 38 33 45 47 20 39 45 60 74 69 61 53 39 43 37